Location: Fort Worth, Tx
(32.7431°N, 97.3695°W)
Time: 09:34:01
(UTC-04:00)

A-11 Canister half - Pass Details

Date: 13 August 2024
Orbit: 1524 x 1684 km, 47.3° (Epoch: 13 September)

Event Time Altitude Azimuth Distance (km) Brightness Sun altitude
Rises 00:43:03 0° 235° (SW) 4,867 11.6 -35.8°
Reaches altitude 10° 00:46:10 10° 236° (WSW) 3,898 11.1 -36.1°
Maximum altitude 00:56:14 80° 324° (NW) 1,703 9.1 -37.2°
Drops below altitude 10° 01:06:28 10° 52° (NE) 3,946 11.2 -38.3°
Sets 01:09:39 0° 53° (NE) 4,929 11.8 -38.6°
